Time,TemperatureF,DewpointF,PressureIn,WindDirection,WindDirectionDegrees,WindSpeedMPH,WindSpeedGustMPH,Humidity,HourlyPrecipIn,Conditions,Clouds,dailyrainin,SolarRadiationWatts/m^2,SoftwareType,DateUTC
2013-05-14 00:02:00,47.0,-99.9,-100.00,South,182,2.0,5.0,0,0.00,,,0.00,0.000000,,2013-05-14 07:02:00,
2013-05-14 00:32:00,46.0,-99.9,-100.00,South,187,1.0,5.0,0,0.00,,,0.00,0.000000,,2013-05-14 07:32:00,
2013-05-14 00:42:00,46.0,-99.9,-100.00,South,187,1.0,5.0,0,0.00,,,0.00,0.000000,,2013-05-14 07:42:00,
2013-05-14 00:52:00,46.0,-99.9,-100.00,South,187,1.0,5.0,0,0.00,,,0.00,0.000000,,2013-05-14 07:52:00,
2013-05-14 01:02:00,46.0,-99.9,-100.00,South,187,1.0,5.0,0,0.00,,,0.00,0.000000,,2013-05-14 08:02:00,
2013-05-14 01:22:00,52.0,-99.9,-100.00,South,183,4.0,6.0,0,0.00,,,0.00,0.000000,,2013-05-14 08:22:00,
2013-05-14 01:32:00,52.0,-99.9,-100.00,South,183,4.0,6.0,0,0.00,,,0.00,0.000000,,2013-05-14 08:32:00,
2013-05-14 02:03:00,50.0,-99.9,-100.00,South,180,3.0,8.0,0,0.00,,,0.00,0.000000,,2013-05-14 09:03:00,
2013-05-14 02:33:00,50.0,-99.9,-100.00,South,180,3.0,8.0,0,0.00,,,0.00,0.000000,,2013-05-14 09:33:00,
2013-05-14 02:44:00,50.0,-99.9,-100.00,South,180,3.0,8.0,0,0.00,,,0.00,0.000000,,2013-05-14 09:44:00,
2013-05-14 02:55:00,50.0,-99.9,-100.00,South,180,3.0,8.0,0,0.00,,,0.00,0.000000,,2013-05-14 09:55:00,
2013-05-14 03:03:00,48.0,-99.9,-100.00,South,186,3.0,8.0,0,0.00,,,-99.99,0.000000,,2013-05-14 10:03:00,
2013-05-14 03:33:00,48.0,-99.9,-100.00,South,186,3.0,8.0,0,0.00,,,-99.99,0.000000,,2013-05-14 10:33:00,
2013-05-14 03:43:00,48.0,-99.9,-100.00,South,186,3.0,8.0,0,0.00,,,-99.99,0.000000,,2013-05-14 10:43:00,
2013-05-14 03:53:00,48.0,-99.9,-100.00,South,186,3.0,8.0,0,0.00,,,-99.99,0.000000,,2013-05-14 10:53:00,
2013-05-14 04:03:00,45.0,-99.9,-100.00,South,182,4.0,7.0,0,0.00,,,0.00,0.000000,,2013-05-14 11:03:00,
2013-05-14 04:32:00,45.0,-99.9,-100.00,South,182,4.0,7.0,0,0.00,,,0.00,0.000000,,2013-05-14 11:32:00,
2013-05-14 04:44:00,45.0,-99.9,-100.00,South,182,4.0,7.0,0,0.00,,,0.00,0.000000,,2013-05-14 11:44:00,
2013-05-14 04:53:00,45.0,-99.9,-100.00,South,182,4.0,7.0,0,0.00,,,0.00,0.000000,,2013-05-14 11:53:00,
2013-05-14 05:22:00,51.0,-99.9,-100.00,South,184,3.0,7.0,0,0.00,,,0.00,0.000000,,2013-05-14 12:22:00,
2013-05-14 05:32:00,51.0,-99.9,-100.00,South,184,3.0,7.0,0,0.00,,,0.00,0.000000,,2013-05-14 12:32:00,
2013-05-14 05:52:00,51.0,-99.9,-100.00,South,184,3.0,7.0,0,0.00,,,0.00,0.000000,,2013-05-14 12:52:00,
2013-05-14 06:02:00,51.0,-99.9,-100.00,South,184,3.0,7.0,0,0.00,,,0.00,0.000000,,2013-05-14 13:02:00,
2013-05-14 06:22:00,51.0,-99.9,-100.00,South,179,3.0,8.0,0,0.00,,,0.00,16.000000,,2013-05-14 13:22:00,
2013-05-14 06:32:00,51.0,-99.9,-100.00,South,179,3.0,8.0,0,0.00,,,0.00,16.000000,,2013-05-14 13:32:00,
2013-05-14 06:42:00,51.0,-99.9,-100.00,South,179,3.0,8.0,0,0.00,,,0.00,16.000000,,2013-05-14 13:42:00,
2013-05-14 06:52:00,51.0,-99.9,-100.00,South,179,3.0,8.0,0,0.00,,,0.00,16.000000,,2013-05-14 13:52:00,
2013-05-14 07:02:00,51.0,-99.9,-100.00,South,179,3.0,8.0,0,0.00,,,0.00,16.000000,,2013-05-14 14:02:00,
2013-05-14 07:22:00,59.0,-99.9,-100.00,South,184,0.0,7.0,0,0.00,,,-99.99,182.000000,,2013-05-14 14:22:00,
2013-05-14 07:32:00,59.0,-99.9,-100.00,South,184,0.0,7.0,0,0.00,,,-99.99,182.000000,,2013-05-14 14:32:00,
2013-05-14 07:42:00,59.0,-99.9,-100.00,South,184,0.0,7.0,0,0.00,,,-99.99,182.000000,,2013-05-14 14:42:00,
2013-05-14 07:53:00,59.0,-99.9,-100.00,South,184,0.0,7.0,0,0.00,,,-99.99,182.000000,,2013-05-14 14:53:00,
2013-05-14 08:01:00,59.0,-99.9,-100.00,South,184,0.0,7.0,0,0.00,,,-99.99,182.000000,,2013-05-14 15:01:00,
2013-05-14 08:03:00,64.0,-99.9,-100.00,WSW,242,3.0,6.0,0,0.00,,,0.00,348.000000,,2013-05-14 15:03:00,
2013-05-14 08:33:00,64.0,-99.9,-100.00,WSW,242,3.0,6.0,0,0.00,,,0.00,348.000000,,2013-05-14 15:33:00,
2013-05-14 08:43:00,64.0,-99.9,-100.00,WSW,242,3.0,6.0,0,0.00,,,0.00,348.000000,,2013-05-14 15:43:00,
2013-05-14 08:53:00,64.0,-99.9,-100.00,WSW,242,3.0,6.0,0,0.00,,,0.00,348.000000,,2013-05-14 15:53:00,
2013-05-14 09:03:00,66.0,-99.9,-100.00,NE,53,5.0,11.0,0,0.00,,,0.00,544.000000,,2013-05-14 16:03:00,
2013-05-14 09:33:00,66.0,-99.9,-100.00,NE,53,5.0,11.0,0,0.00,,,0.00,544.000000,,2013-05-14 16:33:00,
2013-05-14 09:44:00,66.0,-99.9,-100.00,NE,53,5.0,11.0,0,0.00,,,0.00,544.000000,,2013-05-14 16:44:00,
2013-05-14 09:54:00,66.0,-99.9,-100.00,NE,53,5.0,11.0,0,0.00,,,0.00,544.000000,,2013-05-14 16:54:00,
2013-05-14 10:25:00,70.0,-99.9,-100.00,East,92,5.0,13.0,0,0.00,,,0.00,705.000000,,2013-05-14 17:25:00,
2013-05-14 10:33:00,70.0,-99.9,-100.00,East,92,5.0,13.0,0,0.00,,,0.00,705.000000,,2013-05-14 17:33:00,
2013-05-14 10:43:00,70.0,-99.9,-100.00,East,92,5.0,13.0,0,0.00,,,0.00,705.000000,,2013-05-14 17:43:00,
2013-05-14 10:53:00,70.0,-99.9,-100.00,East,92,5.0,13.0,0,0.00,,,0.00,705.000000,,2013-05-14 17:53:00,
2013-05-14 11:02:00,70.0,-99.9,-100.00,East,92,5.0,13.0,0,0.00,,,0.00,705.000000,,2013-05-14 18:02:00,
2013-05-14 11:32:00,73.0,-99.9,-100.00,ENE,72,5.0,14.0,0,0.00,,,-99.99,828.000000,,2013-05-14 18:32:00,
2013-05-14 11:42:00,73.0,-99.9,-100.00,ENE,72,5.0,14.0,0,0.00,,,-99.99,828.000000,,2013-05-14 18:42:00,
2013-05-14 11:52:00,73.0,-99.9,-100.00,ENE,72,5.0,14.0,0,0.00,,,-99.99,828.000000,,2013-05-14 18:52:00,
2013-05-14 12:02:00,73.0,-99.9,-100.00,ENE,72,5.0,14.0,0,0.00,,,-99.99,828.000000,,2013-05-14 19:02:00,
2013-05-14 12:32:00,72.0,-99.9,-100.00,NNW,342,5.0,16.0,0,0.00,,,0.00,720.000000,,2013-05-14 19:32:00,
2013-05-14 12:42:00,72.0,-99.9,-100.00,NNW,342,5.0,16.0,0,0.00,,,0.00,720.000000,,2013-05-14 19:42:00,
2013-05-14 12:53:00,72.0,-99.9,-100.00,NNW,342,5.0,16.0,0,0.00,,,0.00,720.000000,,2013-05-14 19:53:00,
2013-05-14 13:02:00,72.0,-99.9,-100.00,NNW,342,5.0,16.0,0,0.00,,,0.00,720.000000,,2013-05-14 20:02:00,
2013-05-14 13:03:00,74.0,-99.9,-100.00,NE,46,5.0,15.0,0,0.00,,,0.00,660.000000,,2013-05-14 20:03:00,
2013-05-14 13:33:00,74.0,-99.9,-100.00,NE,46,5.0,15.0,0,0.00,,,0.00,660.000000,,2013-05-14 20:33:00,
2013-05-14 13:44:00,74.0,-99.9,-100.00,NE,46,5.0,15.0,0,0.00,,,0.00,660.000000,,2013-05-14 20:44:00,
2013-05-14 13:52:00,74.0,-99.9,-100.00,NE,46,5.0,15.0,0,0.00,,,0.00,660.000000,,2013-05-14 20:52:00,
2013-05-14 14:03:00,76.0,-99.9,-100.00,WNW,288,4.0,16.0,0,0.00,,,0.00,793.000000,,2013-05-14 21:03:00,
2013-05-14 14:34:00,76.0,-99.9,-100.00,WNW,288,4.0,16.0,0,0.00,,,0.00,793.000000,,2013-05-14 21:34:00,
2013-05-14 14:43:00,76.0,-99.9,-100.00,WNW,288,4.0,16.0,0,0.00,,,0.00,793.000000,,2013-05-14 21:43:00,
2013-05-14 14:53:00,76.0,-99.9,-100.00,WNW,288,4.0,16.0,0,0.00,,,0.00,793.000000,,2013-05-14 21:53:00,
2013-05-14 15:03:00,70.0,-99.9,-100.00,NNW,338,1.0,13.0,0,-99.99,,,0.00,313.000000,,2013-05-14 22:03:00,
2013-05-14 15:35:00,70.0,-99.9,-100.00,NNW,338,1.0,13.0,0,-99.99,,,0.00,313.000000,,2013-05-14 22:35:00,
2013-05-14 15:45:00,70.0,-99.9,-100.00,NNW,338,1.0,13.0,0,-99.99,,,0.00,313.000000,,2013-05-14 22:45:00,
2013-05-14 15:55:00,70.0,-99.9,-100.00,NNW,338,1.0,13.0,0,-99.99,,,0.00,313.000000,,2013-05-14 22:55:00,
2013-05-14 16:32:00,74.0,-99.9,-100.00,ENE,77,0.0,13.0,0,0.00,,,0.00,291.000000,,2013-05-14 23:32:00,
2013-05-14 16:44:00,74.0,-99.9,-100.00,ENE,77,0.0,13.0,0,0.00,,,0.00,291.000000,,2013-05-14 23:44:00,
2013-05-14 16:53:00,74.0,-99.9,-100.00,ENE,77,0.0,13.0,0,0.00,,,0.00,291.000000,,2013-05-14 23:53:00,
2013-05-14 17:02:00,74.0,-99.9,-100.00,ENE,77,0.0,13.0,0,0.00,,,0.00,291.000000,,2013-05-15 00:02:00,
2013-05-14 17:32:00,71.0,-99.9,-100.00,NNW,327,4.0,7.0,0,0.00,,,0.00,327.000000,,2013-05-15 00:32:00,
2013-05-14 17:42:00,71.0,-99.9,-100.00,NNW,327,4.0,7.0,0,0.00,,,0.00,327.000000,,2013-05-15 00:42:00,
2013-05-14 17:52:00,71.0,-99.9,-100.00,NNW,327,4.0,7.0,0,0.00,,,0.00,327.000000,,2013-05-15 00:52:00,
2013-05-14 18:01:00,71.0,-99.9,-100.00,NNW,327,4.0,7.0,0,0.00,,,0.00,327.000000,,2013-05-15 01:01:00,
2013-05-14 18:22:00,66.0,-99.9,-100.00,NNW,346,6.0,15.0,0,0.00,,,0.00,101.000000,,2013-05-15 01:22:00,
2013-05-14 18:32:00,66.0,-99.9,-100.00,NNW,346,6.0,15.0,0,0.00,,,0.00,101.000000,,2013-05-15 01:32:00,
2013-05-14 18:42:00,66.0,-99.9,-100.00,NNW,346,6.0,15.0,0,0.00,,,0.00,101.000000,,2013-05-15 01:42:00,
2013-05-14 18:52:00,66.0,-99.9,-100.00,NNW,346,6.0,15.0,0,0.00,,,0.00,101.000000,,2013-05-15 01:52:00,
2013-05-14 19:02:00,66.0,-99.9,-100.00,NNW,346,6.0,15.0,0,0.00,,,0.00,101.000000,,2013-05-15 02:02:00,
2013-05-14 19:22:00,63.0,-99.9,-100.00,South,177,0.0,17.0,0,0.00,,,0.00,19.000000,,2013-05-15 02:22:00,
2013-05-14 19:32:00,63.0,-99.9,-100.00,South,177,0.0,17.0,0,0.00,,,0.00,19.000000,,2013-05-15 02:32:00,
2013-05-14 19:42:00,63.0,-99.9,-100.00,South,177,0.0,17.0,0,0.00,,,0.00,19.000000,,2013-05-15 02:42:00,
2013-05-14 19:52:00,63.0,-99.9,-100.00,South,177,0.0,17.0,0,0.00,,,0.00,19.000000,,2013-05-15 02:52:00,
2013-05-14 20:01:00,63.0,-99.9,-100.00,South,177,0.0,17.0,0,0.00,,,0.00,19.000000,,2013-05-15 03:01:00,
2013-05-14 20:03:00,61.0,-99.9,-100.00,South,169,3.0,7.0,0,0.00,,,0.00,3.000000,,2013-05-15 03:03:00,
2013-05-14 20:33:00,61.0,-99.9,-100.00,South,169,3.0,7.0,0,0.00,,,0.00,3.000000,,2013-05-15 03:33:00,
2013-05-14 20:44:00,61.0,-99.9,-100.00,South,169,3.0,7.0,0,0.00,,,0.00,3.000000,,2013-05-15 03:44:00,
2013-05-14 20:54:00,61.0,-99.9,-100.00,South,169,3.0,7.0,0,0.00,,,0.00,3.000000,,2013-05-15 03:54:00,
2013-05-14 21:33:00,55.0,-99.9,-100.00,SSE,167,2.0,6.0,0,0.00,,,0.00,0.000000,,2013-05-15 04:33:00,
2013-05-14 21:43:00,55.0,-99.9,-100.00,SSE,167,2.0,6.0,0,0.00,,,0.00,0.000000,,2013-05-15 04:43:00,
2013-05-14 21:52:00,55.0,-99.9,-100.00,SSE,167,2.0,6.0,0,0.00,,,0.00,0.000000,,2013-05-15 04:52:00,
2013-05-14 22:02:00,55.0,-99.9,-100.00,SSE,167,2.0,6.0,0,0.00,,,0.00,0.000000,,2013-05-15 05:02:00,
2013-05-14 22:03:00,54.0,-99.9,-100.00,SSE,160,5.0,6.0,0,0.00,,,0.00,0.000000,,2013-05-15 05:03:00,
2013-05-14 22:32:00,54.0,-99.9,-100.00,SSE,160,5.0,6.0,0,0.00,,,0.00,0.000000,,2013-05-15 05:32:00,
2013-05-14 22:42:00,54.0,-99.9,-100.00,SSE,160,5.0,6.0,0,0.00,,,0.00,0.000000,,2013-05-15 05:42:00,
2013-05-14 22:52:00,54.0,-99.9,-100.00,SSE,160,5.0,6.0,0,0.00,,,0.00,0.000000,,2013-05-15 05:52:00,
2013-05-14 23:22:00,58.0,-99.9,-100.00,South,170,3.0,9.0,0,0.00,,,0.00,0.000000,,2013-05-15 06:22:00,
2013-05-14 23:32:00,58.0,-99.9,-100.00,South,170,3.0,9.0,0,0.00,,,0.00,0.000000,,2013-05-15 06:32:00,
2013-05-14 23:42:00,58.0,-99.9,-100.00,South,170,3.0,9.0,0,0.00,,,0.00,0.000000,,2013-05-15 06:42:00,
2013-05-14 23:52:00,58.0,-99.9,-100.00,South,170,3.0,9.0,0,0.00,,,0.00,0.000000,,2013-05-15 06:52:00,